Year,Month,Day,Hour,Minute,Value (Times are PST for temperature in C)
2016,08,25,00,00,17.40
2016,08,25,00,01,17.40
2016,08,25,00,02,17.30
2016,08,25,00,03,17.30
2016,08,25,00,04,17.30
2016,08,25,00,05,17.30
2016,08,25,00,06,17.20
2016,08,25,00,07,17.20
2016,08,25,00,08,17.20
2016,08,25,00,09,17.20
2016,08,25,00,10,17.20
2016,08,25,00,11,17.10
2016,08,25,00,12,17.10
2016,08,25,00,13,17.10
2016,08,25,00,14,17.10
2016,08,25,00,15,17.10
2016,08,25,00,16,17.00
2016,08,25,00,17,17.00
2016,08,25,00,18,17.00
2016,08,25,00,19,17.00
2016,08,25,00,20,17.00
2016,08,25,00,21,16.90
2016,08,25,00,22,16.90
2016,08,25,00,23,16.90
2016,08,25,00,24,16.90
2016,08,25,00,25,16.80
2016,08,25,00,26,16.80
2016,08,25,00,27,16.80
2016,08,25,00,28,16.80
2016,08,25,00,29,16.80
2016,08,25,00,30,16.80
2016,08,25,00,31,16.80
2016,08,25,00,32,16.70
2016,08,25,00,33,16.70
2016,08,25,00,34,16.70
2016,08,25,00,35,16.70
2016,08,25,00,36,16.70
2016,08,25,00,37,16.70
2016,08,25,00,38,16.70
2016,08,25,00,39,16.70
2016,08,25,00,40,16.70
2016,08,25,00,41,16.70
2016,08,25,00,42,16.70
2016,08,25,00,43,16.70
2016,08,25,00,44,16.70
2016,08,25,00,45,16.70
2016,08,25,00,46,16.70
2016,08,25,00,47,16.60
2016,08,25,00,48,16.60
2016,08,25,00,49,16.60
2016,08,25,00,50,16.60
2016,08,25,00,51,16.60
2016,08,25,00,52,16.60
2016,08,25,00,53,16.50
2016,08,25,00,54,16.50
2016,08,25,00,55,16.50
2016,08,25,00,56,16.50
2016,08,25,00,57,16.40
2016,08,25,00,58,16.40
2016,08,25,00,59,16.40
2016,08,25,01,00,16.40
2016,08,25,01,01,16.40
2016,08,25,01,02,16.40
2016,08,25,01,03,16.30
2016,08,25,01,04,16.30
2016,08,25,01,05,16.30
2016,08,25,01,06,16.30
2016,08,25,01,07,16.30
2016,08,25,01,08,16.30
2016,08,25,01,09,16.30
2016,08,25,01,10,16.20
2016,08,25,01,11,16.20
2016,08,25,01,12,16.20
2016,08,25,01,13,16.20
2016,08,25,01,14,16.20
2016,08,25,01,15,16.20
2016,08,25,01,16,16.20
2016,08,25,01,17,16.10
2016,08,25,01,18,16.10
2016,08,25,01,19,16.10
2016,08,25,01,20,16.10
2016,08,25,01,21,16.10
2016,08,25,01,22,16.00
2016,08,25,01,23,16.00
2016,08,25,01,24,16.00
2016,08,25,01,25,16.00
2016,08,25,01,26,16.00
2016,08,25,01,27,15.90
2016,08,25,01,28,15.90
2016,08,25,01,29,15.90
2016,08,25,01,30,15.90
2016,08,25,01,31,15.90
2016,08,25,01,32,15.90
2016,08,25,01,33,15.80
2016,08,25,01,34,15.80
2016,08,25,01,35,15.80
2016,08,25,01,36,15.80
2016,08,25,01,37,15.80
2016,08,25,01,38,15.80
2016,08,25,01,39,15.70
2016,08,25,01,40,15.70
2016,08,25,01,41,15.70
2016,08,25,01,42,15.70
2016,08,25,01,43,15.70
2016,08,25,01,44,15.60
2016,08,25,01,45,15.60
2016,08,25,01,46,15.60
2016,08,25,01,47,15.60
2016,08,25,01,48,15.60
2016,08,25,01,49,15.60
2016,08,25,01,50,15.60
2016,08,25,01,51,15.60
2016,08,25,01,52,15.60
2016,08,25,01,53,15.60
2016,08,25,01,54,15.60
2016,08,25,01,55,15.60
2016,08,25,01,56,15.60
2016,08,25,01,57,15.60
2016,08,25,01,58,15.60
2016,08,25,01,59,15.60
2016,08,25,02,00,15.60
2016,08,25,02,01,15.60
2016,08,25,02,02,15.60
2016,08,25,02,03,15.60
2016,08,25,02,04,15.60
2016,08,25,02,05,15.50
2016,08,25,02,06,15.50
2016,08,25,02,07,15.50
2016,08,25,02,08,15.50
2016,08,25,02,09,15.50
2016,08,25,02,10,15.40
2016,08,25,02,11,15.40
2016,08,25,02,12,15.40
2016,08,25,02,13,15.40
2016,08,25,02,14,15.40
2016,08,25,02,15,15.40
2016,08,25,02,16,15.40
2016,08,25,02,17,15.40
2016,08,25,02,18,15.40
2016,08,25,02,19,15.40
2016,08,25,02,20,15.40
2016,08,25,02,21,15.40
2016,08,25,02,22,15.40
2016,08,25,02,23,15.50
2016,08,25,02,24,15.50
2016,08,25,02,25,15.50
2016,08,25,02,26,15.50
2016,08,25,02,27,15.50
2016,08,25,02,28,15.50
2016,08,25,02,29,15.50
2016,08,25,02,30,15.50
2016,08,25,02,31,15.60
2016,08,25,02,32,15.60
2016,08,25,02,33,15.60
2016,08,25,02,34,15.60
2016,08,25,02,35,15.60
2016,08,25,02,36,15.60
2016,08,25,02,37,15.60
2016,08,25,02,38,15.60
2016,08,25,02,39,15.60
2016,08,25,02,40,15.60
2016,08,25,02,41,15.60
2016,08,25,02,42,15.70
2016,08,25,02,43,15.60
2016,08,25,02,44,15.60
2016,08,25,02,45,15.60
2016,08,25,02,46,15.60
2016,08,25,02,47,15.60
2016,08,25,02,48,15.60
2016,08,25,02,49,15.60
2016,08,25,02,50,15.60
2016,08,25,02,51,15.60
2016,08,25,02,52,15.50
2016,08,25,02,53,15.50
2016,08,25,02,54,15.50
2016,08,25,02,55,15.50
2016,08,25,02,56,15.50
2016,08,25,02,57,15.40
2016,08,25,02,58,15.40
2016,08,25,02,59,15.40
2016,08,25,03,00,15.40
2016,08,25,03,01,15.40
2016,08,25,03,02,15.40
2016,08,25,03,03,15.40
2016,08,25,03,04,15.40
2016,08,25,03,05,15.40
2016,08,25,03,06,15.40
2016,08,25,03,07,15.40
2016,08,25,03,08,15.40
2016,08,25,03,09,15.40
2016,08,25,03,10,15.40
2016,08,25,03,11,15.40
2016,08,25,03,12,15.40
2016,08,25,03,13,15.40
2016,08,25,03,14,15.40
2016,08,25,03,15,15.40
2016,08,25,03,16,15.40
2016,08,25,03,17,15.40
2016,08,25,03,18,15.40
2016,08,25,03,19,15.40
2016,08,25,03,20,15.40
2016,08,25,03,21,15.40
2016,08,25,03,22,15.40
2016,08,25,03,23,15.40
2016,08,25,03,24,15.40
2016,08,25,03,25,15.30
2016,08,25,03,26,15.30
2016,08,25,03,27,15.30
2016,08,25,03,28,15.30
2016,08,25,03,29,15.30
2016,08,25,03,30,15.30
2016,08,25,03,31,15.30
2016,08,25,03,32,15.30
2016,08,25,03,33,15.20
2016,08,25,03,34,15.20
2016,08,25,03,35,15.20
2016,08,25,03,36,15.20
2016,08,25,03,37,15.20
2016,08,25,03,38,15.10
2016,08,25,03,39,15.10
2016,08,25,03,40,15.10
2016,08,25,03,41,15.10
2016,08,25,03,42,15.00
2016,08,25,03,43,15.00
2016,08,25,03,44,15.00
2016,08,25,03,45,15.00
2016,08,25,03,46,14.90
2016,08,25,03,47,14.90
2016,08,25,03,48,14.90
2016,08,25,03,49,14.90
2016,08,25,03,50,14.90
2016,08,25,03,51,14.90
2016,08,25,03,52,14.80
2016,08,25,03,53,14.80
2016,08,25,03,54,14.80
2016,08,25,03,55,14.80
2016,08,25,03,56,14.80
2016,08,25,03,57,14.80
2016,08,25,03,58,14.80
2016,08,25,03,59,14.80
2016,08,25,04,00,14.90
2016,08,25,04,01,14.90
2016,08,25,04,02,15.00
2016,08,25,04,03,15.00
2016,08,25,04,04,15.00
2016,08,25,04,05,15.10
2016,08,25,04,06,15.10
2016,08,25,04,07,15.10
2016,08,25,04,08,15.10
2016,08,25,04,09,15.10
2016,08,25,04,10,15.20
2016,08,25,04,11,15.20
2016,08,25,04,12,15.20
2016,08,25,04,13,15.20
2016,08,25,04,14,15.20
2016,08,25,04,15,15.10
2016,08,25,04,16,15.10
2016,08,25,04,17,15.10
2016,08,25,04,18,15.10
2016,08,25,04,19,15.10
2016,08,25,04,20,15.10
2016,08,25,04,21,15.10
2016,08,25,04,22,15.00
2016,08,25,04,23,15.00
2016,08,25,04,24,15.00
2016,08,25,04,25,14.90
2016,08,25,04,26,14.90
2016,08,25,04,27,14.90
2016,08,25,04,28,14.90
2016,08,25,04,29,14.80
2016,08,25,04,30,14.80
2016,08,25,04,31,14.80
2016,08,25,04,32,14.70
2016,08,25,04,33,14.70
2016,08,25,04,34,14.70
2016,08,25,04,35,14.70
2016,08,25,04,36,14.60
2016,08,25,04,37,14.60
2016,08,25,04,38,14.60
2016,08,25,04,39,14.60
2016,08,25,04,40,14.60
2016,08,25,04,41,14.60
2016,08,25,04,42,14.60
2016,08,25,04,43,14.60
2016,08,25,04,44,14.60
2016,08,25,04,45,14.60
2016,08,25,04,46,14.60
2016,08,25,04,47,14.60
2016,08,25,04,48,14.60
2016,08,25,04,49,14.60
2016,08,25,04,50,14.60
2016,08,25,04,51,14.70
2016,08,25,04,52,14.70
2016,08,25,04,53,14.70
2016,08,25,04,54,14.70
2016,08,25,04,55,14.70
2016,08,25,04,56,14.70
2016,08,25,04,57,14.70
2016,08,25,04,58,14.70
2016,08,25,04,59,14.70
2016,08,25,05,00,14.70
2016,08,25,05,01,14.70
2016,08,25,05,02,14.70
2016,08,25,05,03,14.70
2016,08,25,05,04,14.80
2016,08,25,05,05,14.80
2016,08,25,05,06,14.80
2016,08,25,05,07,14.90
2016,08,25,05,08,15.00
2016,08,25,05,09,15.00
2016,08,25,05,10,15.10
2016,08,25,05,11,15.20
2016,08,25,05,12,15.20
2016,08,25,05,13,15.20
2016,08,25,05,14,15.20
2016,08,25,05,15,15.20
2016,08,25,05,16,15.20
2016,08,25,05,17,15.20
2016,08,25,05,18,15.10
2016,08,25,05,19,15.10
2016,08,25,05,20,15.10
2016,08,25,05,21,15.10
2016,08,25,05,22,15.00
2016,08,25,05,23,15.00
2016,08,25,05,24,15.00
2016,08,25,05,25,14.90
2016,08,25,05,26,14.90
2016,08,25,05,27,14.90
2016,08,25,05,28,14.90
2016,08,25,05,29,14.80
2016,08,25,05,30,14.80
2016,08,25,05,31,14.80
2016,08,25,05,32,14.80
2016,08,25,05,33,14.70
2016,08,25,05,34,14.70
2016,08,25,05,35,14.70
2016,08,25,05,36,14.70
2016,08,25,05,37,14.60
2016,08,25,05,38,14.60
2016,08,25,05,39,14.60
2016,08,25,05,40,14.50
2016,08,25,05,41,14.50
2016,08,25,05,42,14.50
2016,08,25,05,43,14.40
2016,08,25,05,44,14.40
2016,08,25,05,45,14.40
2016,08,25,05,46,14.30
2016,08,25,05,47,14.30
2016,08,25,05,48,14.30
2016,08,25,05,49,14.20
2016,08,25,05,50,14.20
2016,08,25,05,51,14.20
2016,08,25,05,52,14.20
2016,08,25,05,53,14.10
2016,08,25,05,54,14.10
2016,08,25,05,55,14.10
2016,08,25,05,56,14.00
2016,08,25,05,57,14.00
2016,08,25,05,58,14.00
2016,08,25,05,59,13.90
2016,08,25,06,00,13.90
2016,08,25,06,01,13.90
2016,08,25,06,02,13.90
2016,08,25,06,03,13.80
2016,08,25,06,04,13.80
2016,08,25,06,05,13.80
2016,08,25,06,06,13.80
2016,08,25,06,07,13.80
2016,08,25,06,08,13.70
2016,08,25,06,09,13.70
2016,08,25,06,10,13.70
2016,08,25,06,11,13.70
2016,08,25,06,12,13.70
2016,08,25,06,13,13.70
2016,08,25,06,14,13.70
2016,08,25,06,15,13.60
2016,08,25,06,16,13.60
2016,08,25,06,17,13.60
2016,08,25,06,18,13.60
2016,08,25,06,19,13.60
2016,08,25,06,20,13.60
2016,08,25,06,21,13.60
2016,08,25,06,22,13.60
2016,08,25,06,23,13.60
2016,08,25,06,24,13.50
2016,08,25,06,25,13.50
2016,08,25,06,26,13.50
2016,08,25,06,27,13.50
2016,08,25,06,28,13.40
2016,08,25,06,29,13.40
2016,08,25,06,30,13.40
2016,08,25,06,31,13.40
2016,08,25,06,32,13.40
2016,08,25,06,33,13.40
2016,08,25,06,34,13.30
2016,08,25,06,35,13.30
2016,08,25,06,36,13.30
2016,08,25,06,37,13.30
2016,08,25,06,38,13.30
2016,08,25,06,39,13.30
2016,08,25,06,40,13.30
2016,08,25,06,41,13.30
2016,08,25,06,42,13.30
2016,08,25,06,43,13.30
2016,08,25,06,44,13.30
2016,08,25,06,45,13.30
2016,08,25,06,46,13.20
2016,08,25,06,47,13.20
2016,08,25,06,48,13.20
2016,08,25,06,49,13.20
2016,08,25,06,50,13.20
2016,08,25,06,51,13.20
2016,08,25,06,52,13.20
2016,08,25,06,53,13.20
2016,08,25,06,54,13.20
2016,08,25,06,55,13.20
2016,08,25,06,56,13.20
2016,08,25,06,57,13.20
2016,08,25,06,58,13.20
2016,08,25,06,59,13.20
2016,08,25,07,00,13.20
2016,08,25,07,01,13.20
2016,08,25,07,02,13.20
2016,08,25,07,03,13.20
2016,08,25,07,04,13.20
2016,08,25,07,05,13.30
2016,08,25,07,06,13.30
2016,08,25,07,07,13.30
2016,08,25,07,08,13.30
2016,08,25,07,09,13.40
2016,08,25,07,10,13.40
2016,08,25,07,11,13.40
2016,08,25,07,12,13.40
2016,08,25,07,13,13.50
2016,08,25,07,14,13.50
2016,08,25,07,15,13.60
2016,08,25,07,16,13.60
2016,08,25,07,17,13.60
2016,08,25,07,18,13.70
2016,08,25,07,19,13.80
2016,08,25,07,20,13.80
2016,08,25,07,21,13.80
2016,08,25,07,22,13.90
2016,08,25,07,23,13.90
2016,08,25,07,24,14.00
2016,08,25,07,25,14.10
2016,08,25,07,26,14.10
2016,08,25,07,27,14.20
2016,08,25,07,28,14.20
2016,08,25,07,29,14.30
2016,08,25,07,30,14.30
2016,08,25,07,31,14.30
2016,08,25,07,32,14.30
2016,08,25,07,33,14.40
2016,08,25,07,34,14.40
2016,08,25,07,35,14.40
2016,08,25,07,36,14.50
2016,08,25,07,37,14.50
2016,08,25,07,38,14.60
2016,08,25,07,39,14.70
2016,08,25,07,40,14.70
2016,08,25,07,41,14.80
2016,08,25,07,42,14.90
2016,08,25,07,43,14.90
2016,08,25,07,44,15.00
2016,08,25,07,45,15.10
2016,08,25,07,46,15.20
2016,08,25,07,47,15.30
2016,08,25,07,48,15.30
2016,08,25,07,49,15.40
2016,08,25,07,50,15.50
2016,08,25,07,51,15.60
2016,08,25,07,52,15.70
2016,08,25,07,53,15.80
2016,08,25,07,54,15.90
2016,08,25,07,55,16.00
2016,08,25,07,56,16.10
2016,08,25,07,57,16.20
2016,08,25,07,58,16.30
2016,08,25,07,59,16.40
2016,08,25,08,00,16.50
2016,08,25,08,01,16.60
2016,08,25,08,02,16.70
2016,08,25,08,03,16.80
2016,08,25,08,04,16.80
2016,08,25,08,05,16.90
2016,08,25,08,06,16.90
2016,08,25,08,07,17.00
2016,08,25,08,08,17.10
2016,08,25,08,09,17.10
2016,08,25,08,10,17.20
2016,08,25,08,11,17.30
2016,08,25,08,12,17.30
2016,08,25,08,13,17.40
2016,08,25,08,14,17.50
2016,08,25,08,15,17.60
2016,08,25,08,16,17.70
2016,08,25,08,17,17.70
2016,08,25,08,18,17.80
2016,08,25,08,19,17.90
2016,08,25,08,20,18.00
2016,08,25,08,21,18.10
2016,08,25,08,22,18.20
2016,08,25,08,23,18.30
2016,08,25,08,24,18.30
2016,08,25,08,25,18.40
2016,08,25,08,26,18.60
2016,08,25,08,27,18.60
2016,08,25,08,28,18.80
2016,08,25,08,29,18.90
2016,08,25,08,30,19.00
2016,08,25,08,31,19.10
2016,08,25,08,32,19.20
2016,08,25,08,33,19.30
2016,08,25,08,34,19.40
2016,08,25,08,35,19.50
2016,08,25,08,36,19.60
2016,08,25,08,37,19.70
2016,08,25,08,38,19.80
2016,08,25,08,39,19.90
2016,08,25,08,40,20.00
2016,08,25,08,41,20.10
2016,08,25,08,42,20.20
2016,08,25,08,43,20.20
2016,08,25,08,44,20.30
2016,08,25,08,45,20.40
2016,08,25,08,46,20.50
2016,08,25,08,47,20.50
2016,08,25,08,48,20.60
2016,08,25,08,49,20.60
2016,08,25,08,50,20.70
2016,08,25,08,51,20.70
2016,08,25,08,52,20.80
2016,08,25,08,53,20.80
2016,08,25,08,54,20.90
2016,08,25,08,55,20.90
2016,08,25,08,56,21.00
2016,08,25,08,57,21.00
2016,08,25,08,58,21.10
2016,08,25,08,59,21.10
2016,08,25,09,00,21.20
2016,08,25,09,01,21.20
2016,08,25,09,02,21.30
2016,08,25,09,03,21.40
2016,08,25,09,04,21.40
2016,08,25,09,05,21.50
2016,08,25,09,06,21.50
2016,08,25,09,07,21.60
2016,08,25,09,08,21.60
2016,08,25,09,09,21.70
2016,08,25,09,10,21.70
2016,08,25,09,11,21.70
2016,08,25,09,12,21.70
2016,08,25,09,13,21.80
2016,08,25,09,14,21.80
2016,08,25,09,15,21.80
2016,08,25,09,16,21.80
2016,08,25,09,17,21.90
2016,08,25,09,18,21.90
2016,08,25,09,19,21.90
2016,08,25,09,20,21.90
2016,08,25,09,21,21.90
2016,08,25,09,22,21.90
2016,08,25,09,23,22.00
2016,08,25,09,24,22.00
2016,08,25,09,25,22.00
2016,08,25,09,26,22.00
2016,08,25,09,27,22.10
2016,08,25,09,28,22.10
2016,08,25,09,29,22.10
2016,08,25,09,30,22.10
2016,08,25,09,31,22.20
2016,08,25,09,32,22.20
2016,08,25,09,33,22.20
2016,08,25,09,34,22.20
2016,08,25,09,35,22.30
2016,08,25,09,36,22.30
2016,08,25,09,37,22.30
2016,08,25,09,38,22.30
2016,08,25,09,39,22.30
2016,08,25,09,40,22.30
2016,08,25,09,41,22.40
2016,08,25,09,42,22.40
2016,08,25,09,43,22.40
2016,08,25,09,44,22.40
2016,08,25,09,45,22.40
2016,08,25,09,46,22.50
2016,08,25,09,47,22.50
2016,08,25,09,48,22.50
2016,08,25,09,49,22.60
2016,08,25,09,50,22.60
2016,08,25,09,51,22.60
2016,08,25,09,52,22.60
2016,08,25,09,53,22.70
2016,08,25,09,54,22.70
2016,08,25,09,55,22.70
2016,08,25,09,56,22.80
2016,08,25,09,57,22.80
2016,08,25,09,58,22.80
2016,08,25,09,59,22.80
2016,08,25,10,00,22.90
2016,08,25,10,01,22.90
2016,08,25,10,02,23.00
2016,08,25,10,03,23.00
2016,08,25,10,04,23.00
2016,08,25,10,05,23.10
2016,08,25,10,06,23.10
2016,08,25,10,07,23.10
2016,08,25,10,08,23.10
2016,08,25,10,09,23.20
2016,08,25,10,10,23.20
2016,08,25,10,11,23.20
2016,08,25,10,12,23.30
2016,08,25,10,13,23.40
2016,08,25,10,14,23.40
2016,08,25,10,15,23.50
2016,08,25,10,16,23.60
2016,08,25,10,17,23.60
2016,08,25,10,18,23.70
2016,08,25,10,19,23.80
2016,08,25,10,20,23.80
2016,08,25,10,21,23.80
2016,08,25,10,22,23.90
2016,08,25,10,23,23.90
2016,08,25,10,24,23.90
2016,08,25,10,25,24.00
2016,08,25,10,26,24.00
2016,08,25,10,27,24.10
2016,08,25,10,28,24.10
2016,08,25,10,29,24.20
2016,08,25,10,30,24.30
2016,08,25,10,31,24.30
2016,08,25,10,32,24.40
2016,08,25,10,33,24.40
2016,08,25,10,34,24.50
2016,08,25,10,35,24.50
2016,08,25,10,36,24.50
2016,08,25,10,37,24.50
2016,08,25,10,38,24.50
2016,08,25,10,39,24.60
2016,08,25,10,40,24.60
2016,08,25,10,41,24.60
2016,08,25,10,42,24.60
2016,08,25,10,43,24.70
2016,08,25,10,44,24.70
2016,08,25,10,45,24.70
2016,08,25,10,46,24.80
2016,08,25,10,47,24.80
2016,08,25,10,48,24.90
2016,08,25,10,49,25.00
2016,08,25,10,50,25.00
2016,08,25,10,51,25.10
2016,08,25,10,52,25.10
2016,08,25,10,53,25.10
2016,08,25,10,54,25.10
2016,08,25,10,55,25.20
2016,08,25,10,56,25.20
2016,08,25,10,57,25.20
2016,08,25,10,58,25.30
2016,08,25,10,59,25.30
2016,08,25,11,00,25.30
2016,08,25,11,01,25.40
2016,08,25,11,02,25.40
2016,08,25,11,03,25.40
2016,08,25,11,04,25.50
2016,08,25,11,05,25.50
2016,08,25,11,06,25.60
2016,08,25,11,07,25.60
2016,08,25,11,08,25.60
2016,08,25,11,09,25.60
2016,08,25,11,10,25.60
2016,08,25,11,11,25.60
2016,08,25,11,12,25.60
2016,08,25,11,13,25.60
2016,08,25,11,14,25.60
2016,08,25,11,15,25.60
2016,08,25,11,16,25.70
2016,08,25,11,17,25.70
2016,08,25,11,18,25.70
2016,08,25,11,19,25.70
2016,08,25,11,20,25.80
2016,08,25,11,21,25.80
2016,08,25,11,22,25.90
2016,08,25,11,23,25.90
2016,08,25,11,24,26.00
2016,08,25,11,25,26.00
2016,08,25,11,26,26.10
2016,08,25,11,27,26.10
2016,08,25,11,28,26.10
2016,08,25,11,29,26.10
2016,08,25,11,30,26.20
2016,08,25,11,31,26.20
2016,08,25,11,32,26.20
2016,08,25,11,33,26.20
2016,08,25,11,34,26.20
2016,08,25,11,35,26.10
2016,08,25,11,36,26.10
2016,08,25,11,37,26.10
2016,08,25,11,38,26.10
2016,08,25,11,39,26.00
2016,08,25,11,40,26.00
2016,08,25,11,41,26.00
2016,08,25,11,42,26.00
2016,08,25,11,43,26.10
2016,08,25,11,44,26.10
2016,08,25,11,45,26.10
2016,08,25,11,46,26.20
2016,08,25,11,47,26.20
2016,08,25,11,48,26.30
2016,08,25,11,49,26.30
2016,08,25,11,50,26.40
2016,08,25,11,51,26.40
2016,08,25,11,52,26.40
2016,08,25,11,53,26.40
2016,08,25,11,54,26.40
2016,08,25,11,55,26.40
2016,08,25,11,56,26.50
2016,08,25,11,57,26.50
2016,08,25,11,58,26.50
2016,08,25,11,59,26.50
2016,08,25,12,00,26.50
2016,08,25,12,01,26.50
2016,08,25,12,02,26.40
2016,08,25,12,03,26.40
2016,08,25,12,04,26.40
2016,08,25,12,05,26.40
2016,08,25,12,06,26.40
2016,08,25,12,07,26.40
2016,08,25,12,08,26.40
2016,08,25,12,09,26.40
2016,08,25,12,10,26.50
2016,08,25,12,11,26.50
2016,08,25,12,12,26.60
2016,08,25,12,13,26.70
2016,08,25,12,14,26.70
2016,08,25,12,15,26.80
2016,08,25,12,16,26.80
2016,08,25,12,17,26.80
2016,08,25,12,18,26.90
2016,08,25,12,19,26.90
2016,08,25,12,20,26.90
2016,08,25,12,21,27.00
2016,08,25,12,22,27.00
2016,08,25,12,23,27.00
2016,08,25,12,24,27.00
2016,08,25,12,25,27.00
2016,08,25,12,26,26.90
2016,08,25,12,27,26.90
2016,08,25,12,28,26.90
2016,08,25,12,29,26.80
2016,08,25,12,30,26.80
2016,08,25,12,31,26.80
2016,08,25,12,32,26.70
2016,08,25,12,33,26.70
2016,08,25,12,34,26.70
2016,08,25,12,35,26.70
2016,08,25,12,36,26.60
2016,08,25,12,37,26.60
2016,08,25,12,38,26.60
2016,08,25,12,39,26.60
2016,08,25,12,40,26.60
2016,08,25,12,41,26.50
2016,08,25,12,42,26.50
2016,08,25,12,43,26.40
2016,08,25,12,44,26.40
2016,08,25,12,45,26.30
2016,08,25,12,46,26.30
2016,08,25,12,47,26.30
2016,08,25,12,48,26.30
2016,08,25,12,49,26.30
2016,08,25,12,50,26.40
2016,08,25,12,51,26.40
2016,08,25,12,52,26.40
2016,08,25,12,53,26.40
2016,08,25,12,54,26.40
2016,08,25,12,55,26.40
2016,08,25,12,56,26.50
2016,08,25,12,57,26.50
2016,08,25,12,58,26.50
2016,08,25,12,59,26.50
2016,08,25,13,00,26.60
2016,08,25,13,01,26.60
2016,08,25,13,02,26.70
2016,08,25,13,03,26.70
2016,08,25,13,04,26.80
2016,08,25,13,05,26.80
2016,08,25,13,06,26.90
2016,08,25,13,07,26.90
2016,08,25,13,08,26.90
2016,08,25,13,09,26.90
2016,08,25,13,10,26.90
2016,08,25,13,11,26.90
2016,08,25,13,12,26.90
2016,08,25,13,13,27.00
2016,08,25,13,14,27.00
2016,08,25,13,15,27.10
2016,08,25,13,16,27.10
2016,08,25,13,17,27.20
2016,08,25,13,18,27.20
2016,08,25,13,19,27.20
2016,08,25,13,20,27.30
2016,08,25,13,21,27.30
2016,08,25,13,22,27.30
2016,08,25,13,23,27.30
2016,08,25,13,24,27.30
2016,08,25,13,25,27.30
2016,08,25,13,26,27.30
2016,08,25,13,27,27.40
2016,08,25,13,28,27.40
2016,08,25,13,29,27.50
2016,08,25,13,30,27.60
2016,08,25,13,31,27.60
2016,08,25,13,32,27.60
2016,08,25,13,33,27.60
2016,08,25,13,34,27.60
2016,08,25,13,35,27.60
2016,08,25,13,36,27.60
2016,08,25,13,37,27.70
2016,08,25,13,38,27.80
2016,08,25,13,39,27.90
2016,08,25,13,40,28.00
2016,08,25,13,41,28.10
2016,08,25,13,42,28.10
2016,08,25,13,43,28.20
2016,08,25,13,44,28.20
2016,08,25,13,45,28.20
2016,08,25,13,46,28.20
2016,08,25,13,47,28.20
2016,08,25,13,48,28.20
2016,08,25,13,49,28.20
2016,08,25,13,50,28.20
2016,08,25,13,51,28.30
2016,08,25,13,52,28.30
2016,08,25,13,53,28.30
2016,08,25,13,54,28.30
2016,08,25,13,55,28.20
2016,08,25,13,56,28.10
2016,08,25,13,57,28.00
2016,08,25,13,58,27.90
2016,08,25,13,59,27.80
2016,08,25,14,00,27.80
2016,08,25,14,01,27.70
2016,08,25,14,02,27.70
2016,08,25,14,03,27.70
2016,08,25,14,04,27.80
2016,08,25,14,05,27.80
2016,08,25,14,06,27.80
2016,08,25,14,07,27.80
2016,08,25,14,08,27.80
2016,08,25,14,09,27.80
2016,08,25,14,10,27.70
2016,08,25,14,11,27.70
2016,08,25,14,12,27.60
2016,08,25,14,13,27.50
2016,08,25,14,14,27.40
2016,08,25,14,15,27.40
2016,08,25,14,16,27.40
2016,08,25,14,17,27.40
2016,08,25,14,18,27.40
2016,08,25,14,19,27.40
2016,08,25,14,20,27.40
2016,08,25,14,21,27.50
2016,08,25,14,22,27.50
2016,08,25,14,23,27.60
2016,08,25,14,24,27.60
2016,08,25,14,25,27.60
2016,08,25,14,26,27.60
2016,08,25,14,27,27.70
2016,08,25,14,28,27.60
2016,08,25,14,29,27.60
2016,08,25,14,30,27.70
2016,08,25,14,31,27.70
2016,08,25,14,32,27.70
2016,08,25,14,33,27.70
2016,08,25,14,34,27.70
2016,08,25,14,35,27.70
2016,08,25,14,36,27.70
2016,08,25,14,37,27.70
2016,08,25,14,38,27.70
2016,08,25,14,39,27.70
2016,08,25,14,40,27.70
2016,08,25,14,41,27.80
2016,08,25,14,42,27.80
2016,08,25,14,43,27.80
2016,08,25,14,44,27.80
2016,08,25,14,45,27.70
2016,08,25,14,46,27.70
2016,08,25,14,47,27.70
2016,08,25,14,48,27.70
2016,08,25,14,49,27.70
2016,08,25,14,50,27.70
2016,08,25,14,51,27.70
2016,08,25,14,52,27.80
2016,08,25,14,53,27.80
2016,08,25,14,54,27.80
2016,08,25,14,55,27.80
2016,08,25,14,56,27.80
2016,08,25,14,57,27.70
2016,08,25,14,58,27.70
2016,08,25,14,59,27.70
2016,08,25,15,00,27.70
2016,08,25,15,01,27.70
2016,08,25,15,02,27.70
2016,08,25,15,03,27.70
2016,08,25,15,04,27.70
2016,08,25,15,05,27.80
2016,08,25,15,06,27.80
2016,08,25,15,07,27.80
2016,08,25,15,08,27.90
2016,08,25,15,09,28.00
2016,08,25,15,10,28.10
2016,08,25,15,11,28.20
2016,08,25,15,12,28.30
2016,08,25,15,13,28.40
2016,08,25,15,14,28.50
2016,08,25,15,15,28.50
2016,08,25,15,16,28.60
2016,08,25,15,17,28.60
2016,08,25,15,18,28.60
2016,08,25,15,19,28.50
2016,08,25,15,20,28.50
2016,08,25,15,21,28.40
2016,08,25,15,22,28.40
2016,08,25,15,23,28.40
2016,08,25,15,24,28.40
2016,08,25,15,25,28.40
2016,08,25,15,26,28.40
2016,08,25,15,27,28.40
2016,08,25,15,28,28.50
2016,08,25,15,29,28.60
2016,08,25,15,30,28.70
2016,08,25,15,31,28.70
2016,08,25,15,32,28.80
2016,08,25,15,33,28.80
2016,08,25,15,34,28.80
2016,08,25,15,35,28.80
2016,08,25,15,36,28.90
2016,08,25,15,37,28.90
2016,08,25,15,38,28.90
2016,08,25,15,39,28.90
2016,08,25,15,40,28.80
2016,08,25,15,41,28.80
2016,08,25,15,42,28.80
2016,08,25,15,43,28.80
2016,08,25,15,44,28.80
2016,08,25,15,45,28.80
2016,08,25,15,46,28.80
2016,08,25,15,47,28.90
2016,08,25,15,48,28.90
2016,08,25,15,49,29.00
2016,08,25,15,50,29.00
2016,08,25,15,51,29.10
2016,08,25,15,52,29.10
2016,08,25,15,53,29.10
2016,08,25,15,54,29.10
2016,08,25,15,55,29.10
2016,08,25,15,56,29.10
2016,08,25,15,57,29.10
2016,08,25,15,58,29.00
2016,08,25,15,59,29.00
2016,08,25,16,00,28.90
2016,08,25,16,01,28.90
2016,08,25,16,02,28.90
2016,08,25,16,03,28.90
2016,08,25,16,04,28.90
2016,08,25,16,05,28.90
2016,08,25,16,06,28.90
2016,08,25,16,07,28.90
2016,08,25,16,08,28.90
2016,08,25,16,09,28.90
2016,08,25,16,10,28.90
2016,08,25,16,11,28.90
2016,08,25,16,12,29.00
2016,08,25,16,13,29.00
2016,08,25,16,14,29.10
2016,08,25,16,15,29.10
2016,08,25,16,16,29.10
2016,08,25,16,17,29.20
2016,08,25,16,18,29.20
2016,08,25,16,19,29.20
2016,08,25,16,20,29.20
2016,08,25,16,21,29.20
2016,08,25,16,22,29.20
2016,08,25,16,23,29.20
2016,08,25,16,24,29.20
2016,08,25,16,25,29.20
2016,08,25,16,26,29.20
2016,08,25,16,27,29.10
2016,08,25,16,28,29.10
2016,08,25,16,29,29.10
2016,08,25,16,30,29.00
2016,08,25,16,31,29.00
2016,08,25,16,32,29.10
2016,08,25,16,33,29.10
2016,08,25,16,34,29.10
2016,08,25,16,35,29.10
2016,08,25,16,36,29.10
2016,08,25,16,37,29.10
2016,08,25,16,38,29.10
2016,08,25,16,39,29.10
2016,08,25,16,40,29.20
2016,08,25,16,41,29.20
2016,08,25,16,42,29.20
2016,08,25,16,43,29.20
2016,08,25,16,44,29.30
2016,08,25,16,45,29.30
2016,08,25,16,46,29.30
2016,08,25,16,47,29.30
2016,08,25,16,48,29.40
2016,08,25,16,49,29.40
2016,08,25,16,50,29.40
2016,08,25,16,51,29.50
2016,08,25,16,52,29.50
2016,08,25,16,53,29.60
2016,08,25,16,54,29.50
2016,08,25,16,55,29.50
2016,08,25,16,56,29.50
2016,08,25,16,57,29.60
2016,08,25,16,58,29.60
2016,08,25,16,59,29.60
2016,08,25,17,00,29.60
2016,08,25,17,01,29.70
2016,08,25,17,02,29.70
2016,08,25,17,03,29.80
2016,08,25,17,04,29.80
2016,08,25,17,05,29.80
2016,08,25,17,06,29.80
2016,08,25,17,07,29.80
2016,08,25,17,08,29.90
2016,08,25,17,09,29.90
2016,08,25,17,10,29.90
2016,08,25,17,11,29.90
2016,08,25,17,12,29.90
2016,08,25,17,13,29.90
2016,08,25,17,14,30.00
2016,08,25,17,15,30.00
2016,08,25,17,16,30.10
2016,08,25,17,17,30.10
2016,08,25,17,18,30.10
2016,08,25,17,19,30.20